STARLINK-3788, 52271

Orbit data source: Space-Track

STARLINK-3788, 52271 is a payload satellite owned by SpaceX/Seattle (US) in LEO that was launched on Thu, 21 Apr 2022 UTC via an FALCON 9 launch vehicle from the Air Force Eastern Test Range (AFETR). Payload-class satellites include a variety of spacecraft equipped with specific instruments for various scientific and technological missions. These include communications satellites like Starlink; space stations such as the ISS; scientific satellites like the Hubble; Earth observation satellites from companies like Planet Labs, Umbra, and HawkEye 360; GPS; miniature CubeSats for education and research; and military/defense satellites.

Loading next visibility...
Identifier
52271, 2022-041L
Orbit
LEO
Country
Flag of USUS
Related business
Manufacturer
SpaceX/Seattle
Mission
Operational Commercial Communications
Bus & Motor
STARLINK, Unknown motor
Mass
297 kg wet, ~275 kg dry
Launch date (UTC)
2022-04-21 (4 years ago)
Launch vehicle
FALCON 9
Launch site
Air Force Eastern Test Range (AFETR)
Object type
Payload
Rocket body
Debris
Shape & HBR
Box + 1 Pan, 10.1 m
Radar Cross Section
11.087 m², Large (>1 m²)

Expand to show TLE details & history
Last TLE update: 1 day ago

TLE from 1 day ago
0 STARLINK-3788
1 52271U 22041L   26129.49823481  .00001272  00000-0  97973-4 0  9996
2 52271  53.2166 196.1408 0001208  76.5422 283.5705 15.08841740223542
Epoch: 2026-05-09T11:57Z
TLE epoch observation values (Epoch: 2026-05-09T11:57:27.487Z)
Latitude
-0°
Longitude
149.46146°
Altitude
540.439 km
Speed
7.593 km/s
True Right ascension
13h 04m 33s
True Declination
0° 00' 00"
Sunlit
Object was in full shadow at epoch
Visualization orbit readout
Latitude
Unknown
Longitude
Unknown
Altitude
Unknown
Speed
Unknown
Apparent Right ascension
Unknown
Apparent Declination
Unknown
Sunlit
N/A
Visualization observer readout
Local Sidereal Time
21:22:07
Azimuth
Unknown
Elevation
Unknown
Doppler factor
Unknown
Orbital elements
Apogee altitude
540.819 km
Perigee altitude
539.147 km
Semi-major axis
6,918.12 km
Eccentricity
0.00012
Inclination
53.2166°
RAAN
196.1408°
Arg. of periapsis
76.5422°
True anomaly
283.55704°
Mean anomaly
283.5705°
Eccentric anomaly
283.56377°
Mean motion
3.77191 °/min
Orbital period
95.44 mins
BSTAR
0.000097973
Loading maneuver chart data...
Computing Atmospheric mass density...
Loading historical data...
Loading historical data...
Loading historical data...
Loading historical data...
Loading historical data...
Loading historical data...
Loading historical data...

Documentation

Showing up to 5 results
|